INTELSAT 33E DEB, 61999

Orbit data source: Space-Track

INTELSAT 33E DEB, 61999 is space debris in GEO originally from a launch on Wed, 24 Aug 2016 UTC launched from the French Guiana (FRGUI). Debris objects in space refer to the collection of defunct objects orbiting the Earth. Examples of debris include non-operational satellites, rocket bodies, and fragments generated from explosions, collisions, or faulty payload assembly.

Not visible in the next 10 days
Identifier
61999, 2016-053R
Orbit
GEO
Country
Flag of UnknownUnknown / ITSO
Related business
Manufacturer
Boeing/ES
Mission
Spacecraft
Bus & Motor
Unknown
Mass
Unknown
Launch date (UTC)
2016-08-24 (9 years ago)
Launch vehicle
Unknown
Launch site
French Guiana (FRGUI)
Object type
Payload
Rocket body
Debris
Shape & HBR
Unknown shape, 1.1 m
Radar Cross Section
RCS unknown

Expand to show TLE details & history
Last TLE update: 1 day ago

TLE from 1 day ago
0 INTELSAT 33E DEB
1 61999U 16053R   25340.02150288 -.00000198  00000-0  00000-0 0  9998
2 61999   1.0110  75.9003 0111963  34.5020 324.7547  0.99261243  4101
Epoch: 2025-12-06T00:30Z
TLE epoch observation values (Epoch: 2025-12-06T00:30:57.848Z)
Latitude
Longitude
-8.39736°
Altitude
35,683.465 km
Speed
3.093 km/s
True Right ascension
04h 57m 35s
True Declination
0° 00' 00"
Sunlit
Object was in daylight at epoch
Visualization orbit readout
Latitude
Unknown
Longitude
Unknown
Altitude
Unknown
Speed
Unknown
Apparent Right ascension
Unknown
Apparent Declination
Unknown
Sunlit
N/A
Visualization observer readout
Local Sidereal Time
03:28:19
Azimuth
Unknown
Elevation
Unknown
Doppler factor
Unknown
Orbital elements
Apogee altitude
36,548.65 km
Perigee altitude
35,598.051 km
Semi-major axis
42,451.488 km
Eccentricity
0.0112
Inclination
1.011°
RAAN
75.9003°
Arg. of periapsis
34.502°
True anomaly
324.00577°
Mean anomaly
324.7547°
Eccentric anomaly
324.3811°
Mean motion
0.24814 °/min
Orbital period
1,450.77 mins
BSTAR
0
Loading maneuver chart data...
Computing Atmospheric mass density...
Loading historical data...
Loading historical data...
Loading historical data...
Loading historical data...
Loading historical data...
Loading historical data...
Loading historical data...

Documentation

Showing up to 5 results
|